Location: Newark
(39.9581°N, 97.2014°W)
Time: 09:22:10
(UTC+00:00)

Courier 1B - Visible Passes

Search period start: 17 February 2020 00:00
Search period end: 27 February 2020 00:00
Orbit: 962 x 1209 km, 28.3° (Epoch: 17 February)

Date Brightness Start Highest point End Pass type
(mag) Time Alt. Az. Time Alt. Az. Time Alt. Az.
17 Feb 8.8 01:19:39 10° SW 01:25:35 30° S 01:29:44 16° SE visible
17 Feb 9.3 03:13:21 10° WSW 03:16:38 22° SW 03:16:38 22° SW visible
18 Feb 9.0 00:26:00 10° SW 00:31:58 29° S 00:37:39 10° ESE visible
18 Feb 8.7 02:19:29 10° WSW 02:25:18 29° S 02:26:20 28° S visible
19 Feb 8.8 01:25:38 10° WSW 01:31:42 31° S 01:36:01 16° SE visible
19 Feb 9.5 03:19:55 10° WSW 03:22:56 19° SW 03:22:56 19° SW visible
20 Feb 9.0 00:31:50 10° WSW 00:38:04 32° S 00:44:00 10° ESE visible
20 Feb 8.9 02:25:51 10° WSW 02:31:22 25° SSW 02:32:39 24° S visible
21 Feb 9.0 01:31:51 10° WSW 01:37:47 29° S 01:42:24 14° SE visible
21 Feb 9.7 03:27:04 10° WSW 03:29:18 14° SW 03:29:18 14° SW visible
22 Feb 9.1 00:37:54 10° WSW 00:44:10 31° S 00:50:07 10° SE visible
22 Feb 9.3 02:32:34 10° WSW 02:37:22 20° SSW 02:39:06 18° S visible
23 Feb 9.3 01:38:19 10° WSW 01:43:49 24° SSW 01:48:55 11° SSE visible
24 Feb 9.3 00:44:11 10° WSW 00:50:13 27° SSW 00:55:58 10° SE visible
24 Feb 9.7 02:40:08 10° SW 02:43:16 13° SSW 02:45:43 11° S visible
25 Feb 9.7 01:45:15 10° WSW 01:49:45 18° SSW 01:54:07 10° SSE visible
26 Feb 9.7 00:50:47 10° WSW 00:56:11 22° SSW 01:01:22 10° SSE visible
